CZ-6A DEB, 54538

Orbit data source: Space-Track

CZ-6A DEB, 54538 is space debris in SSO originally from a launch on Fri, 11 Nov 2022 UTC launched from the Taiyaun Space Center, China (TSC). Debris objects in space refer to the collection of defunct objects orbiting the Earth. Examples of debris include non-operational satellites, rocket bodies, and fragments generated from explosions, collisions, or faulty payload assembly.

Loading next visibility...
Identifier
54538, 2022-151KN
Orbit
SSO
Country
Flag of CNCN / PRC
Related business
Manufacturer
SAST
Mission
Spacecraft
Bus & Motor
Unknown
Mass
Unknown
Launch date (UTC)
2022-11-11 (3 years ago)
Launch vehicle
Unknown
Launch site
Taiyaun Space Center, China (TSC)
Object type
Payload
Rocket body
Debris
Shape & HBR
Unknown shape, 0.1 m
Radar Cross Section
Small (<0.1 m²)

Expand to show TLE details & history
Last TLE update: 11 hours ago

TLE from 11 hours ago
0 CZ-6A DEB
1 54538U 22151KN  26130.49449216  .00000133  00000-0  12083-3 0  9991
2 54538  98.8630  96.1134 0120652 178.6097 181.5424 13.95786823177595
Epoch: 2026-05-10T11:52Z
TLE epoch observation values (Epoch: 2026-05-10T11:52:04.122Z)
Latitude
-0.00004°
Longitude
49.79947°
Altitude
999.198 km
Speed
7.308 km/s
True Right ascension
06h 24m 27s
True Declination
0° 00' 00"
Sunlit
Object was in daylight at epoch
Visualization orbit readout
Latitude
Unknown
Longitude
Unknown
Altitude
Unknown
Speed
Unknown
Apparent Right ascension
Unknown
Apparent Declination
Unknown
Sunlit
N/A
Visualization observer readout
Local Sidereal Time
07:23:13
Azimuth
Unknown
Elevation
Unknown
Doppler factor
Unknown
Orbital elements
Apogee altitude
993.499 km
Perigee altitude
817.739 km
Semi-major axis
7,283.756 km
Eccentricity
0.01207
Inclination
98.863°
RAAN
96.1134°
Arg. of periapsis
178.6097°
True anomaly
181.50574°
Mean anomaly
181.5424°
Eccentric anomaly
181.52401°
Mean motion
3.49148 °/min
Orbital period
103.11 mins
BSTAR
0.00012083
Loading maneuver chart data...
Computing Atmospheric mass density...
Loading historical data...
Loading historical data...
Loading historical data...
Loading historical data...
Loading historical data...
Loading historical data...
Loading historical data...

Documentation

Showing up to 5 results
|